Weather History for EIDW - January, 2013

Change the Weather History Date:

Friday, January 25, 2013

  Actual Average Record
Temperature  
Mean Temperature 42 °F -  
Max Temperature 46 °F 46 °F 55 °F (2002)
Min Temperature 39 °F 36 °F 26 °F (2000)
Degree Days  
Heating Degree Days 22    
Moisture  
Dew Point 40 °F    
Average Humidity 87    
Maximum Humidity 100    
Minimum Humidity 76    
Precipitation  
Precipitation 0.47 in 0.07 in - ()
Sea Level Pressure  
Sea Level Pressure 29.61 in    
Wind  
Wind Speed 13 mph ()    
Max Wind Speed 23 mph    
Max Gust Speed 30 mph    
Visibility 6.2 miles    
Events Rain    
Averages and records for this station are not official NWS values.
T = Trace of Precipitation, MM = Missing Value Source: Averaged Metar Reports

Daily Weather History Graph

Daily Weather History Graph

Search for Another Location

Airport or City:

Trip Planner

Search our weather history database for the weather conditions in past years. The results will help you decide how hot, cold, wet, or windy it might be!

Date:

Astronomy

Jan. 25, 2013 Rise Set
Actual Time 8:20 AM GMT 4:55 PM GMT
Civil Twilight 7:41 AM GMT 5:34 PM GMT
Nautical Twilight 6:58 AM GMT 6:17 PM GMT
Astronomical Twilight 6:17 AM GMT 6:58 PM GMT
Moon 3:38 PM GMT (1/25) 6:53 AM GMT (1/25)
Length of Visible Light 9h 52m
Length of Day
8h 34m
Waxing Gibbous, 97% of the Moon is Illuminated
Jan 25
Waxing Gibbous
Jan 27
Full
Feb 3
Last Quarter
Feb 10
New
Feb 17
First Quarter

Hourly Weather History & Observations

Time (GMT) Temp. Windchill Dew Point Humidity Pressure Visibility Wind Dir Wind Speed Gust Speed Precip Events Conditions
12:00 AM 41 °F - 37 °F 80% 29.93 in 12 mi SSE 11.2 mph - -   Overcast
12:00 AM 41.0 °F 34.3 °F 37.4 °F 87% 29.92 in 6.2 mi SSE 11.5 mph - N/A   Mostly Cloudy
12:30 AM 41.0 °F 33.1 °F 37.4 °F 87% 29.89 in 6.2 mi SSE 15.0 mph - N/A   Mostly Cloudy
1:00 AM 41.0 °F 33.9 °F 37.4 °F 87% 29.89 in 6.2 mi SSE 12.7 mph - N/A   Mostly Cloudy
1:30 AM 41.0 °F 33.9 °F 37.4 °F 87% 29.89 in 6.2 mi SSE 12.7 mph - N/A   Mostly Cloudy
2:00 AM 41.0 °F 33.9 °F 37.4 °F 87% 29.89 in 6.2 mi SSE 12.7 mph - N/A   Mostly Cloudy
2:30 AM 41.0 °F 33.5 °F 37.4 °F 87% 29.89 in 6.2 mi SSE 13.8 mph - N/A   Mostly Cloudy
3:00 AM 41.0 °F 33.9 °F 37.4 °F 87% 29.86 in 6.2 mi SSE 12.7 mph - N/A   Mostly Cloudy
3:30 AM 41.0 °F 33.5 °F 37.4 °F 87% 29.86 in 6.2 mi SE 13.8 mph - N/A   Mostly Cloudy
4:00 AM 42.8 °F 37.0 °F 37.4 °F 81% 29.83 in 6.2 mi SSE 10.4 mph - N/A   Mostly Cloudy
4:30 AM 41.0 °F 33.5 °F 39.2 °F 93% 29.83 in 6.2 mi SSE 13.8 mph - N/A Rain Light Rain
5:00 AM 41.0 °F 33.1 °F 39.2 °F 93% 29.80 in 6.2 mi SSE 15.0 mph - N/A Rain Light Rain
5:30 AM 41.0 °F 33.5 °F 39.2 °F 93% 29.80 in 6.2 mi SSE 13.8 mph - N/A Rain Light Rain
6:00 AM 40 °F - 39 °F 97% 29.81 in 9 mi SSE 13.4 mph - - Rain Light Rain
6:00 AM 41.0 °F 33.9 °F 39.2 °F 93% 29.77 in 6.2 mi SSE 12.7 mph - N/A Rain Light Rain
6:30 AM 41.0 °F 34.3 °F 39.2 °F 93% 29.77 in 6.2 mi SE 11.5 mph - N/A Rain Light Rain
7:00 AM 41.0 °F 34.7 °F 39.2 °F 93% 29.74 in 6.2 mi SSE 10.4 mph - N/A Rain Light Rain
7:30 AM 41.0 °F 35.2 °F 39.2 °F 93% 29.74 in 6.2 mi SSE 9.2 mph - N/A Rain Light Rain
8:00 AM 42.8 °F 37.5 °F 39.2 °F 87% 29.71 in 6.2 mi SSE 9.2 mph - N/A Rain Light Rain
8:30 AM 42.8 °F 35.4 °F 39.2 °F 87% 29.71 in 6.2 mi South 15.0 mph - N/A   Mostly Cloudy
9:00 AM 42.8 °F 35.8 °F 39.2 °F 87% 29.68 in 6.2 mi SSE 13.8 mph - N/A Rain Light Rain
9:30 AM 42.8 °F 35.8 °F 39.2 °F 87% 29.68 in 6.2 mi SSE 13.8 mph - N/A Rain Light Rain
10:00 AM 44.6 °F 38.1 °F 39.2 °F 81% 29.65 in 6.2 mi SSE 13.8 mph - N/A   Mostly Cloudy
10:30 AM 44.6 °F 37.8 °F 39.2 °F 81% 29.65 in 6.2 mi SSE 15.0 mph - N/A   Mostly Cloudy
11:00 AM 44.6 °F 37.2 °F 39.2 °F 81% 29.62 in 6.2 mi SSE 17.3 mph - N/A   Mostly Cloudy
11:30 AM 44.6 °F 36.9 °F 41.0 °F 87% 29.59 in 6.2 mi SSE 18.4 mph - N/A Rain Light Rain
12:00 PM 44 °F - 41 °F 83% 29.60 in 16 mi SSE 17.9 mph - - Rain Light Rain
12:00 PM 44.6 °F 36.9 °F 41.0 °F 87% 29.56 in 6.2 mi SSE 18.4 mph - N/A Rain Light Rain
12:30 PM 44.6 °F 37.4 °F 41.0 °F 87% 29.56 in 6.2 mi SSE 16.1 mph - N/A Rain Light Rain
1:00 PM 46.4 °F 39.8 °F 41.0 °F 81% 29.53 in 6.2 mi SSE 16.1 mph - N/A   Mostly Cloudy
1:30 PM 46.4 °F 40.1 °F 41.0 °F 81% 29.50 in 6.2 mi SSE 15.0 mph - N/A Rain Light Rain
2:00 PM 46.4 °F 39.2 °F 41.0 °F 81% 29.50 in 6.2 mi South 18.4 mph - N/A Rain Light Rain
2:30 PM 46.4 °F 38.5 °F 41.0 °F 81% 29.42 in 5.6 mi SSE 21.9 mph - N/A Rain Light Rain
3:00 PM 46.4 °F 39.8 °F 41.0 °F 81% 29.42 in 6.2 mi SSE 16.1 mph - N/A Rain Light Rain
3:30 PM 46.4 °F 39.5 °F 42.8 °F 87% 29.42 in 6.2 mi South 17.3 mph - N/A Rain Light Rain
4:00 PM 46.4 °F 40.7 °F 42.8 °F 87% 29.39 in 6.2 mi SSE 12.7 mph - N/A Rain Light Rain
4:30 PM 46.4 °F 40.7 °F 42.8 °F 87% 29.39 in 3.7 mi SSE 12.7 mph - N/A Rain Light Rain
5:00 PM 46.4 °F 40.1 °F 44.6 °F 93% 29.36 in 3.7 mi South 15.0 mph - N/A Rain Light Rain
5:30 PM 44.6 °F 38.4 °F 44.6 °F 100% 29.36 in 5.0 mi SE 12.7 mph - N/A Rain Light Rain
6:00 PM 46 °F - 44 °F 90% 29.36 in 4 mi SSE 8.9 mph - - Rain Light Rain
6:00 PM 44.6 °F 40.2 °F 44.6 °F 100% 29.33 in 4.3 mi SSE 8.1 mph - N/A Rain Light Rain
6:30 PM 46.4 °F 44.3 °F 44.6 °F 93% 29.36 in 4.3 mi SSE 4.6 mph - N/A Rain Light Rain
7:00 PM 46.4 °F 43.5 °F 44.6 °F 93% 29.36 in 4.3 mi West 5.8 mph - N/A Rain Light Rain
7:30 PM 46.4 °F 42.4 °F 44.6 °F 93% 29.36 in 4.3 mi West 8.1 mph - N/A Rain Light Rain
8:00 PM 46.4 °F 38.7 °F 42.8 °F 87% 29.36 in 4.3 mi NW 20.7 mph - N/A Rain Light Rain
8:30 PM 46.4 °F 39.2 °F 42.8 °F 87% 29.36 in 6.2 mi NW 18.4 mph 29.9 mph N/A Rain Light Rain
9:00 PM 44.6 °F 37.4 °F 42.8 °F 93% 29.39 in 6.2 mi WNW 16.1 mph - N/A   Mostly Cloudy
9:30 PM 44.6 °F 36.1 °F 42.8 °F 93% 29.42 in 6.2 mi WNW 21.9 mph - N/A   Mostly Cloudy
10:00 PM 44.6 °F 35.9 °F 39.2 °F 81% 29.44 in 6.2 mi WNW 23.0 mph - N/A   Mostly Cloudy
10:30 PM 44.6 °F 36.1 °F 39.2 °F 81% 29.47 in 6.2 mi West 21.9 mph - N/A   Mostly Cloudy
11:00 PM 42.8 °F 33.5 °F 37.4 °F 81% 29.50 in 6.2 mi WNW 23.0 mph - N/A   Mostly Cloudy
11:30 PM 42.8 °F 34.0 °F 35.6 °F 76% 29.53 in 6.2 mi West 20.7 mph - N/A   Mostly Cloudy